Regional Weather Roundup
Issued by NWS Grand Forks, ND

Home | Current Version | Previous Version | Text Only | Print | Product List | Glossary Off
Versions: 1 2 3 4 5 6 7 8 9 10 11 12 13 14 15 16 17 18 19 20 21 22 23 24 25 26 27 28 29 30 31 32 33 34 35 36 37 38 39 40 41 42 43 44 45 46 47 48 49 50

000
ASUS43 KFGF 232310
RWRFGF
PRAIRIE TO PINES  WEATHER ROUNDUP
NATIONAL WEATHER SERVICE EASTERN NORTH DAKOTA/GRAND FORKS ND
600 PM CDT WED JUL 23 2014

 **SATELLITE DATA USED TO AUGMENT SKY COVER AT AUTOMATED STATIONS**
 *****  WEATHER ACROSS EASTERN NORTH DAKOTA  *****

CITY           SKY/WX    TMP DP  RH WIND       PRES   REMARKS
GRAND FORKS    MOSUNNY   75  58  55 VRB5      30.22F
GRAND FRKS AFB SUNNY     74  59  60 NE7       30.24F
GRAND FRKS NWS   N/A     75 N/A N/A VRB7        N/A
DEVILS LAKE    MOSUNNY   73  57  56 SE7       30.22F
FARGO          MOSUNNY   78  58  49 N9        30.21F
WAHPETON ARPT  MOCLDY    77  52  41 NE5       30.22F
$$

 ***** WEATHER ACROSS CENTRAL AND WESTERN NORTH DAKOTA  *****

CITY           SKY/WX    TMP DP  RH WIND       PRES   REMARKS
BISMARCK       SUNNY     83  59  44 SE17      30.15F
MINOT          MOSUNNY   76  66  71 E16       30.15F
JAMESTOWN      PTSUNNY   78  59  51 SE10      30.20F
MINOT AFB      MOSUNNY   76  68  76 E16       30.15F
GARRISON         N/A     79  64  60 SE14      30.15F
WILLISTON      MOSUNNY   86  62  44 SE21G28   30.06F
DICKINSON      MOSUNNY   82  64  54 SE18G26   30.10F
HETTINGER      SUNNY     81  61  50 SE16G26   30.12F
$$

 *****  OTHER AIRPORT OBSERVATIONS IN OUR AREA  *****

CITY           SKY/WX    TMP DP  RH WIND       PRES   REMARKS
WALHALLA       FAIR      72  54  53 E6          N/A
GRAFTON AIRPOR FAIR      72  55  56 N7        30.23F
VALLEY CITY AR FAIR      75  57  53 SE7       30.22F
CANDO          MOCLDY    72  59  64 SE8       30.23F
CAVALIER APRT  FAIR      73  52  46 NE7       30.24F
GWINNER        CLEAR     79  57  47 SE7       30.23F
SHEYENNE NWR     N/A     82  59  45 CALM      29.95S
ROLLA          FAIR      72  57  60 SE10      30.24F
 ***** THE ABOVE OBSERVATIONS ARE NON NWS ARE NOT QUALITY
       CONTROLLED AND MAY MIS-REPORT RAIN FOR SNOW...
$$

  *****  WEATHER ACROSS NORTHERN MINNESOTA  *****

CITY           SKY/WX    TMP DP  RH WIND       PRES   REMARKS
FLAG ISLAND    SUNNY     70  46  43 N5        30.23F
WARROAD        NOT AVBL
ROSEAU         SUNNY     72  55  56 SE3       30.23F
HALLOCK        SUNNY     73  50  43 CALM      30.23F
THF RVR FALLS  MOSUNNY   72  55  56 NW7       30.23F
BAUDETTE       SUNNY     72  50  45 NW6       30.24F
WASKISH        SUNNY     75  55  50 CALM      30.22S
CROOKSTON      SUNNY     73  57  56 NW8       30.24F
$$
  *****  WEATHER ACROSS CENTRAL AND WEST MINNESOTA  *****

CITY           SKY/WX    TMP DP  RH WIND       PRES   REMARKS
FOSSTON        PTSUNNY   75  57  53 N5        30.24F
BEMIDJI        MOSUNNY   73  54  50 W8        30.23F
PARK RAPIDS    PTSUNNY   75  51  43 VRB5      30.23F
ELBOW LAKE     FAIR      75  57  53 N5        30.22F
WADENA         MOSUNNY   75  55  50 N8        30.23S
DETROIT LAKES  SUNNY     72  55  56 N7        30.25F
MOORHEAD       MOSUNNY   77  61  57 N7        30.23F
FERGUS FALLS   SUNNY     75  55  50 W5        30.22F
MORRIS MN      SUNNY     79  57  47 NE3       30.21F
STAPLES        SUNNY     75  52  43 NW9       30.22F
$$
  *****  WEATHER ELSEWHERE ACROSS MINNESOTA  *****

CITY           SKY/WX    TMP DP  RH WIND       PRES   REMARKS
DULUTH         MOSUNNY   73  53  49 S3        30.20F
INTRNTL FALLS  MOSUNNY   71  50  47 N6        30.23F
ELY            PTSUNNY   70  46  43 N5        30.22F
CLOQUET        SUNNY     75  45  33 NW7       30.21S
WHEATON        MOSUNNY   73  57  56 CALM      30.23F
BRAINERD       SUNNY     75  50  41 N7        30.22F
HIBBING        SUNNY     75  51  43 N8        30.22F
ALEXANDRIA     MOSUNNY   77  54  44 N7        30.24F
SAINT CLOUD    SUNNY     81  52  36 N7        30.20F
MINNEAPOLIS    MOSUNNY   81  49  32 NW10      30.18F
$$

  *****  WEATHER ACROSS SOUTH DAKOTA  *****

CITY           SKY/WX    TMP DP  RH WIND       PRES   REMARKS
SIOUX FALLS    MOSUNNY   79  57  46 E13       30.19F
BROOKINGS      NOT AVBL
WATERTOWN      SUNNY     78  54  43 E8        30.22F
HURON          MOSUNNY   79  55  43 SE10      30.18F
SISSETON         N/A     78  58  49 E7        30.20F
ABERDEEN       SUNNY     80  55  42 SE9       30.19F
MITCHELL       SUNNY     82  58  43 SE9       30.18F
PIERRE         PTSUNNY   85  54  34 E17       30.13R
MOBRIDGE       SUNNY     82  58  43 SE16      30.13F
RAPID CITY     SUNNY     84  63  49 SE15      30.11F
$$

  *****  SOME WEATHER IN NEARBY STATES *****

CITY           SKY/WX    TMP DP  RH WIND       PRES   REMARKS
GLASGOW MT     MOSUNNY   92  58  31 E21G31    29.96F HX  91
GREAT FALLS MT SUNNY     92  46  20 S6        29.96F
CHEYENNE WY    MOSUNNY   78  63  59 SW18      30.33R
SCOTTSBLUFF NE SUNNY     93  65  39 S12       30.14F HX  95
OMAHA NE       MOSUNNY   84  58  40 NE6       30.15F
DES MOINES IA  MOSUNNY   83  57  41 N14       30.15S
DAVENPORT IA   MOSUNNY   78  57  48 N12       30.14F
CHICAGO IL     MOSUNNY   68  51  54 NE18G29   30.15R
EAU CLAIRE WI  SUNNY     80  51  36 N10       30.16F
LA CROSSE WI   PTSUNNY   79  56  45 N5        30.15F
$$

  *****  SOME NATIONAL WEATHER *****

CITY           SKY/WX    TMP DP  RH WIND       PRES   REMARKS
LA GUARDIA NY  PTSUNNY   84  71  65 S12G17    29.76F
RALEIGH NC     PTSUNNY   88  72  58 SW13      29.93R HX  94
ATLANTA GA     MOSUNNY   87  69  54 W9        29.98F HX  91
NEW ORLEANS LA PTSUNNY   83  72  69 S8        29.96F
OKLAHOMA CITY  CLOUDY    93  76  57 NE15      30.04S HX 105
ALBUQUERQUE NM PTSUNNY   87  51  28 S7        30.29S
SALT LAKE CITY PTSUNNY  100  36  11 W7        29.97F HX  94
LOS ANGELES CA MOSUNNY   78  58  49 W16       29.92F
BOISE ID       MOSUNNY   94  42  16 E8        29.90F HX  90
SEATTLE WA     LGT RAIN  59  58  96 S8        30.06S
$$

*** WEATHER ACROSS MANITOBA...SASKATCHEWAN AND ONTARIO ***
                ***ONTARIO***

CITY           SKY/WX    TMP DP  RH WIND       PRES   REMARKS
GERALDTON      MOSUNNY   68  46  45 NW12      30.14F
THUNDER BAY    MOSUNNY   72  46  40 N8        30.19S
SIOUX LOOKOUT  MOSUNNY   70  46  43 W6        30.22F
TORONTO        PTSUNNY   68  55  64 N16       29.98R
BIG TROUT LK   SUNNY     73  50  43 NW14G22   30.02F
PICKLE LAKE    CLOUDY    72  46  40 W14G20    30.14F
DRYDEN         SUNNY     70  45  40 NW6       30.23F
KENORA         MOSUNNY   70  46  43 VRB2      30.25F
$$
                *** MANITOBA***

CITY           SKY/WX    TMP DP  RH WIND       PRES   REMARKS
BRANDON        MOSUNNY   75  52  43 E9        30.23F
DAUPHIN        SUNNY     72  54  53 SE12G18   30.20F
ISLAND LAKE    MOSUNNY   77  50  38 NW8       30.15F
PILOT MOUND      N/A     70  55  60 SE7         N/A
THE PAS        MOSUNNY   79  50  36 S3        30.16F
THOMPSON       MOSUNNY   81  52  36 NW8       30.11F
WINNIPEG       MOSUNNY   73  50  43 N7        30.24F
LYNN LAKE      SUNNY     82  41  23 NW9       30.11F
CHURCHILL      MOSUNNY   66  52  59 VRB2      30.05F
GILLAM         PTSUNNY   77  54  44 W8        30.06F
$$
                ***SASKATCHEWAN***

CITY           SKY/WX    TMP DP  RH WIND       PRES   REMARKS
ESTEVAN        PTSUNNY   75  64  69 E17       30.15S
KINDERSLEY     MOSUNNY   77  64  65 SE18G28   30.01F
LLOYDMINSTER   LGT RAIN  68  64  88 VRB2      30.02F
PRINCE ALBERT  PTSUNNY   73  59  60 S7        30.12F
REGINA         PTSUNNY   75  63  64 SE15G23   30.13S
YORKTON        MOSUNNY   75  54  46 SE10      30.19F
N. BATTLEFORD  MOSUNNY   73  63  68 SE16G25   30.06F
LA RONGE       NOT AVBL
SASKATOON      PTSUNNY   79  61  53 S16G24    30.11S
SWIFT CURRENT  PTSUNNY   73  61  64 SE16G22   30.04R
$$
NOTE: THESE ARE AUTOMATED STATIONS WITH LIMITED QUALITY CONTROL
      "FAIR" INDICATES FEW OR NO CLOUDS BELOW 12,000 FEET WITH NO
      SIGNIFICANT WEATHER AND/OR OBSTRUCTIONS TO VISIBILITY.
      SKY/WX - SKY CONDITION AND SIGNIFICANT WEATHER.
      TMP - AIR TEMPERATURE.    DP   - DEWPOINT TEMPERATURE.
      RH  - RELATIVE HUMIDITY.  PRES - PRESSURE.
      HX  - HEAT INDEX.         WCI  - WIND CHILL INDEX.
$


USA.gov is the U.S. government's official web portal to all federal, state and local government web resources and services.